Regional Weather Roundup
Issued by NWS San Diego, CA

Home | Current Version | Previous Version | Text Only | Print | Product List | Glossary On
Versions: 1 2 3 4 5 6 7 8 9 10 11 12 13 14 15 16 17 18 19 20 21 22 23 24 25 26 27 28 29 30 31 32 33 34 35 36 37 38 39 40 41 42 43 44 45 46 47 48 49 50
000
ASUS46 KSGX 111610
RWRSGX

SAN DIEGO HOURLY WEATHER ROUNDUP
NATIONAL WEATHER SERVICE SAN DIEGO CA
900 AM PDT FRI JUL 11 2014

NOTE: "FAIR" INDICATES FEW OR NO CLOUDS BELOW 12,000 FEET WITH NO
SIGNIFICANT WEATHER AND/OR OBSTRUCTIONS TO VISIBILITY.

CAZ042-043-060-061-PZZ750-775-111700-

GREATER SAN DIEGO AREA

CITY           SKY/WX    TMP DP  RH WIND       PRES   REMARKS
LINDBERGH FLD  MOSUNNY   73  60  63 NW7       30.01R
POINT LOMA       N/A     70  60  71 NW10        N/A
NATIONAL CITY    N/A     74  64  69 CALM      29.99S
CHULA VISTA      N/A     76  66  71 CALM      29.93R
IMPERIAL BEACH PTSUNNY   72  63  73 W12       30.00R
BROWN FIELD    MOSUNNY   72  61  68 MISG      30.00S
MIRAMAR MCAS   MOSUNNY   72  58  61 N5        30.00R
MONTGOMERY FLD SUNNY     72  60  66 CALM      30.00S

$$

NORTH SAN DIEGO COUNTY

CITY           SKY/WX    TMP DP  RH WIND       PRES   REMARKS
CAMP PENDLETON MOSUNNY   73  58  59 SE5       29.99S
OCEANSIDE AP   CLOUDY    70  61  73 W5        29.99R
VISTA            N/A     69  62  78 CALM      29.98R
CARLSBAD       PTSUNNY   70  59  68 CALM      29.99S
DEL MAR          N/A     71  63  75 CALM      30.02R
LA JOLLA SCRIP   N/A     70  64  81 W5        29.98R
FALLBROOK        N/A     69  66  89 CALM      30.00S
ESCONDIDO        N/A     73  64  73 S3        30.00S
SAN MARCOS       N/A     70  62  76 CALM      29.97S
POWAY            N/A     73  64  71 NW3       30.00R
R. PENASQUITOS   N/A     70  62  76 S5        29.99R

$$

EAST SAN DIEGO COUNTY

CITY           SKY/WX    TMP DP  RH WIND       PRES   REMARKS
RAMONA         SUNNY     69  58  67 VRB5      30.02R
SANTEE LAKES     N/A     71  63  76 CALM      30.00R
GILLESPIE FLD  FAIR      72  61  68 CALM      30.01S
LA MESA          N/A     72  64  77 CALM      29.93R
JAMUL            N/A     69  62  78 CALM      29.97S
DESCANSO N       N/A     77  40  27 E3        29.84S
MT. LAGUNA OBS   N/A     67  33  29 W9        29.77R
CAMPO            N/A     78  43  28 S3        30.01S

$$

ORANGE COUNTY AND THE LOS ANGELES BASIN

CITY           SKY/WX    TMP DP  RH WIND       PRES   REMARKS
JOHN WAYNE AP  PTSUNNY   72  61  68 SW6       30.00R
LAGUNA BEACH     N/A     69  63  80 W3        29.96R
LAKE FOREST FR   N/A     67  59  76 CALM      29.91R
SANTA ANA        N/A     70  65  83 CALM      29.95R
HUNTINGTON BCH   N/A     69  63  80 CALM      30.02R
LOS ALAMITOS   PTSUNNY   71  61  70 SE6       30.00R
FULLERTON      CLOUDY    72  60  66 CALM      29.99R
LONG BEACH     MOSUNNY   71  59  65 CALM      30.00R
L.A. AP        MOSUNNY   71  59  65 VRB5      30.00R
L.A. DOWNTOWN  MOSUNNY   71  59  65 CALM      29.99S

$$

THE INLAND EMPIRE

CITY           SKY/WX    TMP DP  RH WIND       PRES   REMARKS
CORONA         SUNNY     70  61  73 CALM      30.01R
CHINO          MOSUNNY   70  62  76 W5        30.01S
ONTARIO        MOSUNNY   71  60  68 SW6       30.00R
SAN BERNARDINO SUNNY     72  57  60 CALM      30.01R HAZE
RIVERSIDE AP   SUNNY     69  61  75 W5        30.00R
RIV CYN CREST    N/A     68  67  97 W2        29.97R
MORENO VALLEY    N/A     74  64  71 S2        28.11R
MARCH ARB      SUNNY     72  60  64 VRB1      30.01R
HORSETHIEF CYN   N/A     71  56  58 CALM      29.99R
PERRIS           N/A     71  62  73 SW1         N/A
MENIFEE          N/A     68  63  83 S2        30.07R
HEMET EAST       N/A     71  49  44 CALM      29.95S
FRENCH VALLEY  FAIR      68  59  73 SW3       30.02R
TEMECULA         N/A     67  62  83 CALM      29.97S

$$

SAN BERNARDINO AND RIVERSIDE COUNTY MOUNTAINS

CITY           SKY/WX    TMP DP  RH WIND       PRES   REMARKS
BIG BEAR AP    SUNNY     63  32  31 W6        30.26R
BIG BEAR SHEA    N/A     65  29  26 NW3       29.92F
ANGELUS OAKS     N/A     67  36  31 CALM      29.84R
PINE COVE        N/A     65  32  28 CALM      29.91R

$$

SOUTHERN DESERT INCLUDING THE COACHELLA VALLEY

CITY           SKY/WX    TMP DP  RH WIND       PRES   REMARKS
PALM SPRINGS   SUNNY     90  46  21 CALM      29.89S
THOUSAND PALMS   N/A     90  48  23 W8        29.84R
PALM DESERT      N/A     90  57  32 CALM      32.01S
THERMAL        SUNNY     92  51  24 N6        29.83S
BLYTHE         SUNNY     91  49  23 SW3       29.86S
IMPERIAL AP    SUNNY     92  50  23 W5        29.85S HAZE
EL CENTRO NAS  MOSUNNY   91  55  29 SE7       29.86R
YUMA AZ        PTSUNNY   93  45  19 NW6       29.86S
MEXICALI       MOSUNNY   95  41  15 W6        29.87

$$

UPPER DESERT

CITY           SKY/WX    TMP DP  RH WIND       PRES   REMARKS
VICTORVILLE AP SUNNY     79  39  24 E3        30.03R
HESPERIA         N/A     79  45  30 NW1       29.99R
APPLE VALLEY     N/A     79  42  26 CALM      30.07S
GRAY BUTTE AP  FAIR      79  40  25 NW3       30.03R
PALMDALE       SUNNY     81  40  23 SW10      30.01R
LANCASTER      SUNNY     82  36  19 SW13      30.00R
EDWARDS AFB    SUNNY     80  38  22 SW13      29.98R
DAGGETT        SUNNY     85  42  22 W13       29.97R
29 PALMS N     MOSUNNY   84  39  20 N3        30.04R
NEEDLES        SUNNY     88  65  46 NE7       29.91R

$$

REGIONAL REPORTS

CITY           SKY/WX    TMP DP  RH WIND       PRES   REMARKS
SANTA BARBARA  CLOUDY    68  60  75 VRB6      29.99R
SANDBERG       SUNNY     71  41  33 S8        30.13R
MT. WILSON       N/A     73  43  33 SW1         N/A
LAS VEGAS NV   MOSUNNY   83  59  44 SE5       29.96R
PHOENIX AZ     MOSUNNY   93  56  28 NW7       29.89S
TIJUANA        MOSUNNY   70  59  68 CALM      30.02S

$$

OFFSHORE ISLANDS

CITY           SKY/WX    TMP DP  RH WIND       PRES   REMARKS
CATALINA ARPT  SUNNY     63  56  78 W7        30.03R
SAN NICOLAS IS PTSUNNY   67  57  70 NW15      30.02R

$$

MARINE AND OFFSHORE BUOY REPORTS

STATION/POSITION SKY/WX   TEMP    WIND        PRES    SWELL
                          AIR SEA DIR/SP/G            HT/PER/DIR
                          (F)     (DEG/KT/KT) (MB)    (FT/S/D)
TANNER BANKS               62 63  300/ 12/ 14 1016.8R   3/290/11
S CLEMENTE BASIN           66 69  310/  8/ 10 1016.1R   3/260/11
SO. S. ROSA ISLA           63 67  320/ 14/ 17 1016.1R   5/10
W. S. BARBARA CH           61 63  330/ 10/ 12 1015.9R   3/320/ 9
M. S. BARBARA CH                  280/ 12       N/A
S. MONICA BASIN            66 71  340/  4/  6 1015.7R   2/270/ 5
S PEDRO CHANNEL               71                N/A     2/170/13
DANA POINT                    73                N/A     2/190/13
CMP PENDLETON NS              73                N/A     2/220/12
OCEANSIDE OFFSHR              72                N/A     2/200/11
TORREY PINES OTR              74                N/A     2/220/12
LA JOLLA 1                 70 68  360/  6/  8 1015.9R
MISSION BAY BUOY              74                N/A     2/230/12
SAN DIEGO BAY                 76              1016.1R
POINT LOMA SOUTH              71                N/A     2/200/11

$$



USA.gov is the U.S. government's official web portal to all federal, state and local government web resources and services.